Edinburg, TX

4:15 PM CDT on April 24, 2018 (GMT -0500)
Edinburg

Weather History for KEBG - January, 2012

Change the Weather History Date:

Sunday, January 29, 2012

  Actual Average (KMFE) Record (KMFE)
Temperature  
Mean Temperature 60 °F -  
Max Temperature 71 °F 71 °F 90 °F (1947)
Min Temperature 49 °F 51 °F 28 °F (1885)
Degree Days  
Heating Degree Days 5    
Growing Degree Days 10 (Base 50)    
Moisture  
Dew Point 42 °F    
Average Humidity 51    
Maximum Humidity 66    
Minimum Humidity 46    
Precipitation  
Precipitation 0.00 in - - ()
Sea Level Pressure  
Sea Level Pressure 30.37 in    
Wind  
Wind Speed 9 mph (NNE)    
Max Wind Speed 15 mph    
Max Gust Speed 16 mph    
Visibility 10 miles    
Events      
Averages and records for this station are not official NWS values.
T = Trace of Precipitation, MM = Missing Value Source: NWS Daily Summary

Daily Weather History Graph

Daily Weather History Graph

Search for Another Location

Airport or City:

Astronomy

Jan. 29, 2012 Rise Set
Actual Time 7:18 AM CST 6:12 PM CST
Civil Twilight 6:54 AM CST 6:37 PM CST
Nautical Twilight 6:26 AM CST 7:04 PM CST
Astronomical Twilight 5:59 AM CST 7:32 PM CST
Moon 10:54 AM CST (1/29) No Moon Set
Length of Visible Light 11h 42m
Length of Day
10h 53m
Waxing Crescent, 37% of the Moon is Illuminated
Jan 29
Waxing Crescent
Jan 30
First Quarter
Feb 7
Full
Feb 14
Last Quarter
Feb 21
New

Hourly Weather History & Observations

Time (CST) Temp. Dew Point Humidity Pressure Visibility Wind Dir Wind Speed Gust Speed Precip Events Conditions
12:15 AM 60.1 °F 48.7 °F 66% 30.38 in 10.0 mi North 9.2 mph - N/A   Overcast
12:35 AM 59.7 °F 48.0 °F 65% 30.38 in 10.0 mi North 11.5 mph - N/A   Overcast
12:55 AM 59.2 °F 45.1 °F 60% 30.38 in 10.0 mi North 11.5 mph 16.1 mph N/A   Overcast
1:35 AM 58.6 °F 40.8 °F 52% 30.36 in 10.0 mi North 10.4 mph - N/A   Overcast
1:55 AM 57.9 °F 39.7 °F 51% 30.37 in 10.0 mi North 8.1 mph - N/A   Mostly Cloudy
2:15 AM 57.4 °F 38.5 °F 49% 30.37 in 10.0 mi North 9.2 mph - N/A   Scattered Clouds
2:35 AM 56.8 °F 37.4 °F 48% 30.36 in 10.0 mi North 11.5 mph - N/A   Scattered Clouds
2:55 AM 56.3 °F 36.7 °F 48% 30.35 in 10.0 mi NNE 10.4 mph - N/A   Clear
3:15 AM 55.8 °F 35.8 °F 47% 30.36 in 10.0 mi North 9.2 mph - N/A   Clear
3:35 AM 55.0 °F 35.6 °F 48% 30.36 in 10.0 mi North 5.8 mph - N/A   Clear
3:55 AM 53.8 °F 35.2 °F 50% 30.36 in 10.0 mi NNW 6.9 mph - N/A   Clear
4:15 AM 52.5 °F 34.5 °F 50% 30.37 in 10.0 mi North 5.8 mph - N/A   Clear
4:35 AM 52.0 °F 34.2 °F 51% 30.37 in 10.0 mi NNW 5.8 mph - N/A   Clear
4:55 AM 51.6 °F 33.4 °F 50% 30.37 in 10.0 mi North 8.1 mph - N/A   Clear
5:15 AM 51.3 °F 33.1 °F 50% 30.37 in 10.0 mi North 9.2 mph - N/A   Clear
5:35 AM 50.9 °F 32.9 °F 50% 30.37 in 10.0 mi North 9.2 mph - N/A   Clear
5:55 AM 50.4 °F 32.9 °F 51% 30.37 in 10.0 mi North 9.2 mph - N/A   Clear
6:15 AM 50.2 °F 32.9 °F 52% 30.38 in 10.0 mi North 8.1 mph - N/A   Clear
6:35 AM 49.8 °F 32.9 °F 52% 30.39 in 10.0 mi North 8.1 mph - N/A   Clear
6:55 AM 49.6 °F 33.1 °F 53% 30.39 in 10.0 mi North 11.5 mph - N/A   Clear
7:15 AM 49.6 °F 33.1 °F 53% 30.40 in 10.0 mi North 10.4 mph - N/A   Scattered Clouds
7:35 AM 49.6 °F 33.1 °F 53% 30.39 in 10.0 mi North 15.0 mph - N/A   Mostly Cloudy
7:55 AM 50.0 °F 33.1 °F 52% 30.41 in 10.0 mi North 10.4 mph - N/A   Overcast
8:15 AM 50.5 °F 32.9 °F 51% 30.43 in 10.0 mi NNW 9.2 mph - N/A   Mostly Cloudy
8:35 AM 51.3 °F 33.1 °F 50% 30.43 in 10.0 mi NNW 9.2 mph - N/A   Scattered Clouds
8:55 AM 52.2 °F 33.3 °F 49% 30.44 in 10.0 mi North 12.7 mph - N/A   Scattered Clouds
9:15 AM 53.4 °F 34.3 °F 48% 30.44 in 10.0 mi North 11.5 mph - N/A   Mostly Cloudy
9:55 AM 57.0 °F 37.2 °F 48% 30.45 in 10.0 mi North 11.5 mph - N/A   Clear
10:15 AM 58.6 °F 38.5 °F 47% 30.44 in 10.0 mi North 11.5 mph - N/A   Scattered Clouds
10:35 AM 60.1 °F 40.1 °F 48% 30.44 in 10.0 mi North 10.4 mph - N/A   Mostly Cloudy
11:15 AM 62.6 °F 42.4 °F 48% 30.44 in 10.0 mi NNE 8.1 mph - N/A   Overcast
11:35 AM 63.5 °F 43.2 °F 47% 30.43 in 10.0 mi North 8.1 mph - N/A   Overcast
11:55 AM 64.6 °F 43.9 °F 47% 30.42 in 10.0 mi NNE 8.1 mph - N/A   Overcast
12:15 PM 66.4 °F 45.5 °F 47% 30.41 in 7.0 mi NNE 5.8 mph - N/A   Overcast
12:35 PM 67.3 °F 45.9 °F 46% 30.41 in 7.0 mi North 5.8 mph - N/A   Overcast
12:55 PM 68.4 °F 47.3 °F 47% 30.39 in 10.0 mi NE 5.8 mph - N/A   Overcast
1:15 PM 69.1 °F 47.7 °F 46% 30.38 in 10.0 mi North 6.9 mph - N/A   Overcast
1:35 PM 70.0 °F 48.6 °F 46% 30.36 in 10.0 mi NNE 6.9 mph - N/A   Overcast
1:55 PM 70.9 °F 49.6 °F 47% 30.35 in 10.0 mi NE 5.8 mph - N/A   Overcast
2:15 PM 71.8 °F 50.9 °F 48% 30.34 in 10.0 mi ENE 5.8 mph - N/A   Mostly Cloudy
2:35 PM 71.8 °F 51.4 °F 49% 30.33 in 10.0 mi NE 10.4 mph - N/A   Mostly Cloudy
2:55 PM 70.5 °F 52.5 °F 53% 30.33 in 10.0 mi East 10.4 mph - N/A   Overcast
3:15 PM 70.5 °F 53.1 °F 54% 30.33 in 10.0 mi ENE 10.4 mph - N/A   Overcast
3:35 PM 70.3 °F 53.2 °F 55% 30.32 in 10.0 mi ENE 9.2 mph - N/A   Overcast
3:55 PM 70.2 °F 53.4 °F 55% 30.32 in 10.0 mi ENE 10.4 mph - N/A   Overcast
4:15 PM 70.7 °F 52.9 °F 53% 30.32 in 10.0 mi ENE 6.9 mph - N/A   Overcast
4:35 PM 70.9 °F 52.9 °F 53% 30.31 in 10.0 mi ENE 11.5 mph - N/A   Mostly Cloudy
4:55 PM 70.5 °F 52.9 °F 54% 30.31 in 10.0 mi ENE 10.4 mph - N/A   Mostly Cloudy
5:15 PM 70.0 °F 52.9 °F 55% 30.31 in 10.0 mi East 9.2 mph - N/A   Scattered Clouds
5:35 PM 69.3 °F 52.7 °F 56% 30.31 in 10.0 mi ENE 11.5 mph - N/A   Scattered Clouds
5:55 PM 68.5 °F 52.9 °F 57% 30.31 in 10.0 mi ENE 11.5 mph - N/A   Scattered Clouds
6:15 PM 67.6 °F 52.9 °F 59% 30.31 in 10.0 mi East 10.4 mph - N/A   Scattered Clouds
6:35 PM 66.9 °F 52.7 °F 60% 30.31 in 10.0 mi East 9.2 mph - N/A   Scattered Clouds
6:55 PM 66.0 °F 52.5 °F 62% 30.32 in 10.0 mi ENE 6.9 mph - N/A   Clear
7:35 PM 64.4 °F 52.3 °F 65% 30.34 in 10.0 mi East 5.8 mph - N/A   Clear
8:15 PM 61.7 °F 52.0 °F 70% 30.33 in 10.0 mi NE 4.6 mph - N/A   Scattered Clouds
8:35 PM 61.2 °F 52.2 °F 72% 30.33 in 10.0 mi NE 4.6 mph - N/A   Scattered Clouds
8:55 PM 61.0 °F 52.3 °F 73% 30.33 in 10.0 mi NNE 5.8 mph - N/A   Clear
9:15 PM 61.0 °F 52.7 °F 74% 30.33 in 10.0 mi NE 3.5 mph - N/A   Clear
9:35 PM 60.6 °F 52.5 °F 75% 30.33 in 10.0 mi Calm Calm - N/A   Clear
9:55 PM 59.9 °F 52.3 °F 76% 30.33 in 10.0 mi Calm Calm - N/A   Clear
10:15 PM 59.5 °F 52.2 °F 77% 30.33 in 10.0 mi Calm Calm - N/A   Clear
10:35 PM 59.2 °F 52.2 °F 78% 30.33 in 10.0 mi Calm Calm - N/A   Clear
10:55 PM 59.2 °F 52.2 °F 78% 30.32 in 10.0 mi Calm Calm - N/A   Clear
11:15 PM 58.1 °F 51.8 °F 80% 30.32 in 10.0 mi Calm Calm - N/A   Clear
11:35 PM 57.9 °F 52.0 °F 81% 30.32 in 10.0 mi Calm Calm - N/A   Clear
11:55 PM 57.6 °F 52.0 °F 82% 30.31 in 10.0 mi Calm Calm - N/A   Clear